Location: Easthampton
(42.2676°N, 72.6690°W)
Time: 07:09:02
(UTC+00:00)

Gurwin Techsat 1B - Pass Details

Date: 04 April 2023
Orbit: 811 x 813 km, 98.9° (Epoch: 02 June)

Event Time Altitude Azimuth Distance (km) Brightness Sun altitude
Rises 07:36:36 0° 16° (NNE) 3,347 12.6 -29.5°
Reaches altitude 10° 07:38:58 10° 19° (NNE) 2,411 11.8 -29.2°
Maximum altitude 07:44:17 68° 102° (ESE) 873 8.7 -28.4°
Enters shadow 07:44:29 68° 118° (ESE) 877 8.7 -28.4°
